Skip Page Navigation
NASA JPL Caltech
NASA Logo - Jet Propulsion Laboratory + View the NASA Portal
+ Center for Near-Earth Object Studies
JPL Home Earth Solar System Stars & Galaxies Technology
JPL Solar System Dynamics
BODIES ORBITS EPHEMERIDES TOOLS PHYSICAL DATA DISCOVERY FAQ SITE MAP
JPL Small-Body Database Browser
Search: [ help ]  
150025 (2005 VD6)
Classification: Main-belt Asteroid          SPK-ID: 2150025
Ephemeris | Orbit Diagram | Orbital Elements | Mission Design | Physical Parameters | Discovery Circumstances | Close-Approach Data ]

[ hide orbit diagram ]

For accurate long-term ephemerides, please instead use our Horizons system.This orbit viewer was implemented using two-body methods, and hence should not be used for determining accurate long-term trajectories (over several years or decades) or planetary encounter circumstances.


Orbital Elements at Epoch 2459200.5 (2020-Dec-17.0) TDB
Reference: JPL 19 (heliocentric ecliptic J2000)
 Element Value Uncertainty (1-sigma)   Units 
e .01707455458338624 4.4271e-08  
a 2.556967604812493 1.6842e-08 au
q 2.513308521876172 1.2081e-07 au
i 3.195909833579138 4.3657e-06 deg
node 151.9641673572711 7.1303e-05 deg
peri 207.7227814801588 0.00013612 deg
M 290.1404536757616 0.00011675 deg
tp 2459490.307436800711
(2021-Oct-02.80743680)
0.00048488 TDB
period 1493.434795067621
4.09
1.4755e-05
4.04e-08
d
yr
n .2410550505378439 2.3817e-09 deg/d
Q 2.600626687748814 1.713e-08 au
  Orbit Determination Parameters
   # obs. used (total)      403  
   data-arc span      6832 days (18.70 yr)  
   first obs. used      2001-10-24  
   last obs. used      2020-07-08  
   planetary ephem.      DE441  
   SB-pert. ephem.      SB441-N16  
   condition code      0  
   norm. resid. RMS      .56006  
   source      ORB  
   producer      Otto Matic  
   solution date      2021-Apr-13 19:16:47  

Additional Information
 Earth MOID = 1.50562 au 
 Jupiter MOID = 2.43957 au 
 T_jup = 3.435 
[ show covariance matrix ]

Ephemeris | Orbit Diagram | Orbital Elements | Mission Design | Physical Parameters | Discovery Circumstances | Close-Approach Data ]

Physical Parameter Table
Parameter Symbol Value Units Sigma Reference Notes
absolute magnitude H 16.77   n/a E2021B55  

150025 (2005 VD6)          Discovered 2005-Nov-03 by Spacewatch at Kitt Peak
Reference: 20070202/Numbers.arcLast Updated: 2007-02-06

[ show close-approach data ]
Alternate Designations
 2005 VD6 = 2003 GW11 
Ephemeris | Orbit Diagram | Orbital Elements | Mission Design | Physical Parameters | Discovery Circumstances | Close-Approach Data ]
ABOUT SSD CREDITS/AWARDS PRIVACY/COPYRIGHT GLOSSARY LINKS
FirstGov 2021-May-13 20:26 UT
(server date/time)  
NASA Home Page
Site Manager:   Ryan S. Park
Webmaster  Alan B. Chamberlin